This is the latest recevied weather packets stored in our database for station/object KI4HRG. If no packets are shown the sender has not sent any weather packets the latest 10 day(s).
| Time | Temp. | Humidity | Pressure | Rain* | Wind** | Luminosity | Snow |
|---|---|---|---|---|---|---|---|
| 1777639936 | 13.33° C | 90% | 1014 hPa | 0 mm | - | 48 W/m² | - |
| 1777639634 | 13.33° C | 91% | 1014 hPa | 0 mm | - | 39 W/m² | - |
| 1777639331 | 13.33° C | 91% | 1014.2 hPa | 0 mm | - | 45 W/m² | - |
| 1777639026 | 13.33° C | 92% | 1014 hPa | 0 mm | - | 30 W/m² | - |
| 1777638723 | 12.78° C | 92% | 1014 hPa | 0 mm | - | 25 W/m² | - |
| 1777638419 | 12.78° C | 92% | 1014 hPa | 0 mm | - | 22 W/m² | - |
| 1777638116 | 12.78° C | 92% | 1014 hPa | 0 mm | - | 18 W/m² | - |
| 1777637812 | 12.78° C | 92% | 1013.9 hPa | 0 mm | - | 12 W/m² | - |
| 1777637508 | 12.78° C | 92% | 1014.2 hPa | 0 mm | - | 11 W/m² | - |
| 1777637206 | 12.78° C | 92% | 1014.2 hPa | 0 mm | - | 11 W/m² | - |
| 1777636903 | 12.78° C | 92% | 1013.9 hPa | 0 mm | - | 12 W/m² | - |
| 1777636599 | 12.78° C | 92% | 1013.8 hPa | 0 mm | - | 16 W/m² | - |
| 1777636295 | 12.78° C | 92% | 1013.7 hPa | 0 mm | - | 30 W/m² | - |
| 1777635990 | 12.22° C | 92% | 1013.7 hPa | 0 mm | - | 28 W/m² | - |
| 1777635686 | 12.22° C | 93% | 1013.5 hPa | 0 mm | - | 22 W/m² | - |
| 1777635383 | 12.22° C | 93% | 1013.5 hPa | 0 mm | - | 23 W/m² | - |
| 1777635080 | 12.22° C | 93% | 1013.5 hPa | 0 mm | - | 17 W/m² | - |
| 1777634775 | 12.22° C | 93% | 1013.7 hPa | 0 mm | - | 12 W/m² | - |
| 1777634473 | 12.22° C | 93% | 1013.5 hPa | 0 mm | - | 10 W/m² | - |
| 1777634169 | 12.22° C | 93% | 1013.4 hPa | 0 mm | - | 8 W/m² | - |
| 1777633866 | 12.22° C | 93% | 1013.3 hPa | 0 mm | - | 3 W/m² | - |
| 1777633564 | 12.22° C | 92% | 1013.4 hPa | 0 mm | - | 1 W/m² | - |
| 1777633262 | 12.22° C | 92% | 1013.8 hPa | 0 mm | - | 0 W/m² | - |
| 1777632959 | 12.78° C | 92% | 1013.5 hPa | 0 mm | - | 0 W/m² | - |
| 1777632655 | 12.22° C | 92% | 1013.4 hPa | 0 mm | - | 0 W/m² | - |
* Rain latest hour (hover to see other rain measurements)
** Current wind speed in m/s (hover to see current wind gust speed)